Regional Weather Roundup
Issued by NWS

Home | Current Version | Previous Version | Graphics & Text | Print | Product List | Glossary On
Versions: 1 2 3 4 5 6 7 8 9 10 11 12 13 14 15 16 17 18 19 20 21 22 23 24 25 26 27 28 29 30 31 32 33 34 35 36 37 38 39 40 41 42 43 44 45 46 47 48 49 50
000
ASUS43 KMPX 112001
RWRMN
WEATHER ROUNDUP FOR MINNESOTA
NATIONAL WEATHER SERVICE TWIN CITIES/CHANHASSEN MN
200 PM CST MON DEC 11 2017


NOTE: "FAIR" INDICATES FEW OR NO CLOUDS BELOW 12,000 FEET WITH NO
SIGNIFICANT WEATHER AND/OR OBSTRUCTIONS TO VISIBILITY. N/A MEANS
CURRENT SKY AND/OR WEATHER CONDITIONS ARE NOT AVAILABLE.

MNZ060>063-068>070-112100-
   Twin Cities Metro

CITY           SKY/WX    TMP DP  RH WIND       PRES   REMARKS
TWIN CITIES    CLOUDY    34  28  79 N22G29    29.88R WCI  22
ST PAUL        CLOUDY    34  27  75 N16G29    29.89R WCI  24
CRYSTAL        CLOUDY    34  24  67 N18       29.88R WCI  23
BLAINE         CLOUDY    36  28  75 NW21G30   29.88R
LAKEVILLE      CLOUDY    34  28  80 N18G28    29.85R WCI  23
EDEN PRAIRIE   CLOUDY    35  26  69 N20G31    29.87R WCI  24
SOUTH ST PAUL  CLOUDY    34  28  77 N12G22    29.87R WCI  25
LAKE ELMO      CLOUDY    32  28  86 N16G22    29.87R WCI  21
$$
MNZ001>005-007-008-013>017-022>024-027-028-112100-
   Northwest Minnesota

CITY           SKY/WX    TMP DP  RH WIND       PRES   REMARKS
BEMIDJI        MOSUNNY   20  12  69 N20       30.04R WCI   5
HALLOCK        LGT SNOW  12   9  85 NW20      30.24R WCI  -6
ROSEAU         MOSUNNY   16  10  79 NW17      30.15R WCI   0
WARROAD        LGT SNOW  16  10  79 NW15G21   30.13R WCI   1
CROOKSTON      LGT SNOW  14  10  85 N25G33    30.22R WCI  -5
FOSSTON        LGT SNOW  18  10  73 NW20G26   30.13R WCI   1
DETROIT LAKES  FLURRIES  21  16  79 N25G31    30.10R WCI   4
MOORHEAD       PTSUNNY   18  10  73 N30G36    30.19R WCI  -2
PARK RAPIDS    MOSUNNY   23  14  68 N16G25    30.01R WCI  10
MAHNOMEN       FLURRIES  19  14  81 N21G28    30.11R WCI   2
$$
MNZ006-009>011-018-025>026-112100-
   North Central Minnesota

CITY           SKY/WX    TMP DP  RH WIND       PRES   REMARKS
BAUDETTE       MOSUNNY   17   9  70 NW18G28   30.07R WCI   1
FLAG ISLAND    MOSUNNY   16   9  73 NW22      30.11R WCI  -2
INTL FALLS     CLOUDY    17   7  64 N22       30.02R WCI   0
WASKISH        PTSUNNY   18  10  73 NW13G21   30.07R WCI   4
LONGVILLE      PTSUNNY   21  12  68 N12G21    30.00R WCI   9
GRAND RAPIDS   FLURRIES  21  14  74 NW24G30   29.97R WCI   4
ORR            FLURRIES  18  10  73 NW10G20   29.94R WCI   6
COOK           FLURRIES  19  10  68 NW15G23   29.94R WCI   5
WALKER         CLOUDY    21  12  69 NW18G26   30.02R WCI   6
$$
MNZ012-019>021-037-112100-
   Northeast Minnesota

CITY           SKY/WX    TMP DP  RH WIND       PRES   REMARKS
DULUTH         FLURRIES  22  15  75 N26G36    29.85R WCI   5
ELY            PTSUNNY   18   9  68 NW10G24   29.88R WCI   6
HIBBING        LGT SNOW  19  12  74 N24G30    29.92R WCI   2
DULUTH HARBOR  CLOUDY    27  19  74 N22G31    29.92R WCI  12
TWO HARBORS    FLURRIES  27  18  69 NW9G21    29.84R WCI  17
GRAND MARAIS     N/A     22  12  65 VRB7G17   29.81R WCI  13
G MARAIS ARPRT LGT SNOW  16   7  67 NW18G33   29.72R WCI  -1
$$
MNZ029>031-032-039>041-046>048-054>057-064-112100-
   West Central Minnesota

CITY           SKY/WX    TMP DP  RH WIND       PRES   REMARKS
FERGUS FALLS   FLURRIES  21  16  79 N26G41    30.14R WCI   4
WHEATON        CLOUDY    25  16  68 NW29G36   30.17R WCI   8
MORRIS         CLOUDY    25  18  74 N32G46    30.08R WCI   7
ALEXANDRIA     CLOUDY    25  18  74 NW21G32   30.03R WCI  11
ELBOW LAKE     CLOUDY    22  17  81 NW25G31   30.10R HAZE    WCI   6
WADENA         CLOUDY    23  18  80 NW20      30.02R WCI   8
GLENWOOD       CLOUDY    27  19  74 NW26      30.02R WCI  11
APPLETON       CLOUDY    27  19  74 N32G40    30.10R WCI  10
BENSON         CLOUDY    27  19  74 N30G38    30.07R WCI  10
ORTONVILLE     CLOUDY    25  18  74 N25G36    30.11R WCI   9
MADISON        CLOUDY    30  23  74 N26G35    30.10R WCI  16
WILLMAR        CLOUDY    30  27  86 NW25G33   30.01R WCI  16
$$
MNZ033>034-036-042>043-049>051-058-059-112100-
   Central Minnesota

CITY           SKY/WX    TMP DP  RH WIND       PRES   REMARKS
ST CLOUD       CLOUDY    30  23  75 N21G31    29.94R WCI  17
SAUK CENTRE    CLOUDY    28  21  76 NW28G35   29.99R WCI  12
PAYNESVILLE    CLOUDY    31  25  80 NW22G30   29.98R WCI  18
AITKIN         CLOUDY    23  16  74 N23       29.94R WCI   7
PINE RIVER     CLOUDY    21  14  73 N17G26    30.03R WCI   7
BRAINERD       CLOUDY    25  17  72 N23G31    29.98R WCI  10
STAPLES        CLOUDY    25  18  74 N17G28    30.01R WCI  11
LONG PRAIRIE   CLOUDY    28  19  69 NW18G29   29.99R WCI  16
LITTLE FALLS   CLOUDY    28  14  54 NW13G23   29.98R WCI  18
LITCHFIELD     CLOUDY    34  28  80 NW23      29.96R WCI  22
BUFFALO        CLOUDY    32  26  78 NW10G31   29.94R WCI  24
MAPLE LAKE     CLOUDY    33  28  80 NW24G31   29.95R WCI  20
HUTCHINSON     CLOUDY    34  29  82 NW22G36   29.95R WCI  22
$$
MNZ037-044-045-052-053-112100-
   East Central Minnesota

CITY           SKY/WX    TMP DP  RH WIND       PRES   REMARKS
PRINCETON      CLOUDY    32  27  80 NW17G28   29.93R WCI  21
MORA           CLOUDY    30  23  74 N17G25    29.93R WCI  18
CAMBRIDGE      CLOUDY    34  25  69 NW16G23   29.91R WCI  23
RUSH CITY      CLOUDY    31  25  77 N15G21    29.89R WCI  20
MOOSE LAKE     CLOUDY    27  18  69 N22G35    29.89R WCI  12
HINCKLEY       CLOUDY    30  25  80 N21       29.90R WCI  17
CLOQUET        CLOUDY    23  16  74 NW24      29.88R WCI   7
MCGREGOR       CLOUDY    27  19  74 NW22G29   29.93R WCI  12
$$
MNZ071>073-080-081-089-090-097-098-112100-
   Southwest Minnesota

CITY           SKY/WX    TMP DP  RH WIND       PRES   REMARKS
MONTEVIDEO     CLOUDY    27  21  80 N28G41    30.06R WCI  11
GRANITE FALLS  CLOUDY    31  25  78 NW26G38   30.06R WCI  17
CANBY          CLOUDY    30  24  78 NW28G35   30.11R WCI  15
MARSHALL       CLOUDY    29  24  82 N35G40    30.03R WCI  12
REDWOOD FALLS  CLOUDY    31  24  75 N24G35    30.00R WCI  17
OLIVIA         CLOUDY    30  27  86 NW21G29   29.99R WCI  17
PIPESTONE      CLOUDY    30  25  80 N20G36    30.03R WCI  18
WINDOM           N/A     30  18  59 NW35G45   29.96R WCI  14
WORTHINGTON    CLOUDY    30  27  88 N33G39    29.98R WCI  14
JACKSON        CLOUDY    32  28  86 MISG      29.95R
TRACY          CLOUDY    30  26  85 N31G41    30.02R WCI  15
SLAYTON        CLOUDY    30  26  86 NW25G43   30.00R WCI  16
$$
MNZ065>067-074>077-082>085-091>093-112100-
   South Central Minnesota

CITY           SKY/WX    TMP DP  RH WIND       PRES   REMARKS
MANKATO        CLOUDY    36  30  79 NW21G30   29.89R
NEW ULM        CLOUDY    36  28  75 NW24      29.93R
ST JAMES       CLOUDY    34  30  86 NW25G31   29.95R WCI  21
FAIRMONT       CLOUDY    34  30  85 NW30      29.91R WCI  20
GLENCOE        CLOUDY    35  30  80 N15G28    29.91R WCI  26
FARIBAULT      CLOUDY    36  28  75 NW20G26   29.86R
OWATONNA       CLOUDY    36  30  80 N21G26    29.85R
WASECA         CLOUDY    34  32  93 NW17      29.88R WCI  23
$$
MNZ078>079-086>088-094>096-112100-
   Southeast Minnesota

CITY           SKY/WX    TMP DP  RH WIND       PRES   REMARKS
ROCHESTER      CLOUDY    33  31  92 N17       29.80R WCI  22
RED WING       CLOUDY    34  27  75 N10G20    29.84R WCI  26
STANTON        CLOUDY    35  29  80 NW20G26   29.84R WCI  24
DODGE CENTER   CLOUDY    34  30  86 NW22G30   29.82R WCI  22
WINONA         CLOUDY    32  30  93 NW10      29.80R WCI  24
PRESTON        LGT SNOW  32  31  94 N14G22    29.77R WCI  22
$$
ABBREVIATIONS USED IN REMARKS
   TC - TEMPERATURES IN CELSIUS
  WCI - WIND CHILL INDEX
   HX - HEAT INDEX
  VSB - VISIBILITY
$$




USA.gov is the U.S. government's official web portal to all federal, state and local government web resources and services.